"Pseudo-MPEC" for P118fWV

Created 2020 Oct 21 7:07:30 UT using Find_Orb

Click here for an explanation of pseudo-MPECs

 
 Astrometry: 
     P118fWV  C2020 10 17YaICHiFZ(K@H$r=kq`3PST0C$)w-=@%fd'00b8\b2^f*!2VbE,oSF51
     P118fWV  C2020 10 17pmWSD?qa_PN#X84@*J\=.#AstrometryGdi#4cuA3hxfg=7NWhVZF51
     P118fWV  C2020 10 17nHtyrV[3=EAKj^1LC080'*^8LosLcuFbnVX)jvNlqS]/SH[vXN`:F51
     P118fWV ^C2020 10 18.38513002 26 48.904-27 10 29.70   ~AIKM 21.63GVNEOCP568
     P118fWV ^C2020 10 18.38607602 26 48.839-27 10 30.38   ~AIKM 21.70GVNEOCP568
     P118fWV ^C2020 10 18.38702302 26 48.773-27 10 30.94   ~AIKM 21.64GVNEOCP568
     P118fWV  C2020 10 19XE,^redacted;:%0W!0tIf,,0(Z#Sg:=@bxquWi8VuvJU,\0pVY]F51
     P118fWV  C2020 10 19beGEy$Rfo`[clickH10(CSAhereSN=$]$:mtp12EY1D7ddV3%k[6F51
     P118fWV  C2020 10 20!dforY._g\k@Z+3/UntA9-S^E=!P[Ffr!*+/CrEy=eZSi1GcS:q,F51
     P118fWV  C2020 10 20R#Uqexplanation-6qsbrWH[T@T8F4nSWTtYnk?GaBV2OF]#//4WF51

Station data:
(568) Mauna Kea  (N19.826116 W155.472200)  US/Hawaii.
(F51) Pan-STARRS 1, Haleakala  (N20.707235 W156.255910)  US/Hawaii.
   Observers N. Primak, A. Schultz, S. Watters, J. Thiel, T. Goggia. Measurer
   PS1 Science Consortium. 1.8-m Ritchey-Chrétien + CCD.

Orbital elements:  P118fWV
   Perihelion 2019 Dec 4.869915 +/- 17.7 TT = 20:52:40 (JD 2458822.369915)
Epoch 2020 Oct 20.0 TT = JDT 2459142.5   Earth MOID: 0.7432   AutoNEOCP
M 125.53595050 +/- 7                (J2000 ecliptic)
n   0.39214043 +/- 0.00247          Peri.  112.52037 +/- 5.5
a   1.84859439 +/- 0.00775          Node   141.31342 +/- 0.6
e   0.0830685 +/- 0.00919           Incl.   22.49122 +/- 0.22
P   2.51/918.02d           H 19.5   G  0.15   U  8.7  
q 1.69503433 +/- 0.0107    Q 2.00215446 +/- 0.0249
From 10 observations 2020 Oct. 17-20; mean residual 0".11
Residuals in arcseconds: 
201017 F51  .03-  .07-    201018 568  .07-  .01+    201020 F51  .06+  .02+    
201017 F51  .15+  .02-    201018 568  .10-  .09+    201020 F51  .15-  .06+    
201017 F51  .05-  .05+    201019 F51  .01+  .09+    
201018 568  .05-  .05+    201019 F51  .24+  .28-    

Ephemerides (geocentric):
Date (UTC) HH   RA              Dec         delta   r     elong  mag " sig PA
---- -- -- --  -------------   -----------  ------ ------ -----  --- ---- ---
2020 10 21 07  02 23 39.078   -27 40 07.73  1.0735 1.9467 140.4 22.1 .735 148
2020 10 21 08  02 23 36.323   -27 40 31.16  1.0736 1.9467 140.4 22.1 .764 148
2020 10 21 09  02 23 33.567   -27 40 54.53  1.0737 1.9468 140.4 22.1 .793 148
2020 10 21 10  02 23 30.811   -27 41 17.83  1.0738 1.9468 140.4 22.1 .823 148
2020 10 21 11  02 23 28.054   -27 41 41.07  1.0739 1.9468 140.3 22.1 .853 148
2020 10 21 12  02 23 25.295   -27 42 04.25  1.0740 1.9468 140.3 22.1 .884 148
2020 10 21 13  02 23 22.536   -27 42 27.37  1.0741 1.9469 140.3 22.1 .916 148
2020 10 21 14  02 23 19.777   -27 42 50.43  1.0742 1.9469 140.3 22.1 .948 148
2020 10 21 15  02 23 17.016   -27 43 13.43  1.0743 1.9469 140.3 22.1 .980 148
2020 10 21 16  02 23 14.255   -27 43 36.36  1.0745 1.9470 140.3 22.1 1.01 148
2020 10 21 17  02 23 11.492   -27 43 59.24  1.0746 1.9470 140.3 22.1 1.05 148
2020 10 21 18  02 23 08.729   -27 44 22.05  1.0747 1.9470 140.3 22.1 1.08 148
2020 10 21 19  02 23 05.966   -27 44 44.80  1.0748 1.9471 140.3 22.1 1.11 148
2020 10 21 20  02 23 03.201   -27 45 07.49  1.0749 1.9471 140.3 22.1 1.15 148
2020 10 21 21  02 23 00.436   -27 45 30.11  1.0750 1.9471 140.3 22.1 1.18 148
2020 10 21 22  02 22 57.670   -27 45 52.68  1.0751 1.9472 140.2 22.1 1.22 148
2020 10 21 23  02 22 54.903   -27 46 15.18  1.0752 1.9472 140.2 22.1 1.26 148
2020 10 22 00  02 22 52.136   -27 46 37.63  1.0753 1.9472 140.2 22.1 1.29 148
2020 10 22 01  02 22 49.367   -27 47 00.00  1.0754 1.9473 140.2 22.1 1.33 148
2020 10 22 02  02 22 46.598   -27 47 22.32  1.0755 1.9473 140.2 22.1 1.37 148
2020 10 22 03  02 22 43.829   -27 47 44.58  1.0756 1.9473 140.2 22.1 1.41 148
2020 10 22 04  02 22 41.058   -27 48 06.77  1.0757 1.9474 140.2 22.1 1.45 148
2020 10 22 05  02 22 38.287   -27 48 28.91  1.0759 1.9474 140.2 22.1 1.49 148
2020 10 22 06  02 22 35.516   -27 48 50.98  1.0760 1.9474 140.2 22.1 1.53 148
2020 10 22 07  02 22 32.743   -27 49 12.98  1.0761 1.9475 140.2 22.1 1.57 148
2020 10 22 08  02 22 29.970   -27 49 34.93  1.0762 1.9475 140.1 22.1 1.61 148
2020 10 22 09  02 22 27.197   -27 49 56.82  1.0763 1.9475 140.1 22.1 1.65 148
2020 10 22 10  02 22 24.422   -27 50 18.64  1.0764 1.9475 140.1 22.1 1.69 148
2020 10 22 11  02 22 21.647   -27 50 40.40  1.0765 1.9476 140.1 22.1 1.73 148
2020 10 22 12  02 22 18.872   -27 51 02.10  1.0766 1.9476 140.1 22.1 1.77 148
2020 10 22 13  02 22 16.095   -27 51 23.73  1.0767 1.9476 140.1 22.1 1.82 148
2020 10 22 14  02 22 13.319   -27 51 45.31  1.0768 1.9477 140.1 22.1 1.86 148
2020 10 22 15  02 22 10.541   -27 52 06.82  1.0770 1.9477 140.1 22.1 1.91 149
2020 10 22 16  02 22 07.763   -27 52 28.27  1.0771 1.9477 140.1 22.1 1.95 149
2020 10 22 17  02 22 04.984   -27 52 49.66  1.0772 1.9478 140.1 22.1 2.00 149
2020 10 22 18  02 22 02.205   -27 53 10.98  1.0773 1.9478 140.0 22.1 2.04 149
2020 10 22 19  02 21 59.425   -27 53 32.24  1.0774 1.9478 140.0 22.1 2.09 149
2020 10 22 20  02 21 56.645   -27 53 53.45  1.0775 1.9479 140.0 22.1 2.13 149
2020 10 22 21  02 21 53.864   -27 54 14.58  1.0776 1.9479 140.0 22.1 2.18 149
2020 10 22 22  02 21 51.083   -27 54 35.66  1.0778 1.9479 140.0 22.1 2.23 149
2020 10 22 23  02 21 48.301   -27 54 56.67  1.0779 1.9480 140.0 22.1 2.28 149
2020 10 23 00  02 21 45.518   -27 55 17.63  1.0780 1.9480 140.0 22.1 2.33 149
2020 10 23 01  02 21 42.735   -27 55 38.51  1.0781 1.9480 140.0 22.1 2.37 149
2020 10 23 02  02 21 39.951   -27 55 59.34  1.0782 1.9481 140.0 22.1 2.42 149
2020 10 23 03  02 21 37.167   -27 56 20.11  1.0783 1.9481 139.9 22.1 2.47 149
2020 10 23 04  02 21 34.383   -27 56 40.81  1.0785 1.9481 139.9 22.1 2.53 149
2020 10 23 05  02 21 31.598   -27 57 01.45  1.0786 1.9482 139.9 22.1 2.58 149
2020 10 23 06  02 21 28.812   -27 57 22.02  1.0787 1.9482 139.9 22.1 2.63 149